Stations météo

réclame
Mon MeteoGroup
Volkel, Pays-Bas (6375): Température de l'air & dewpoint: 12.02.2019 01:00:00 - 18.02.2019 01:00:00 (CET)Volkel, Pays-Bas (6375): Température de l'air 5cm: 12.02.2019 01:00:00 - 18.02.2019 01:00:00 (CET)Volkel, Pays-Bas (6375): Vitesse du vent & gusts: 12.02.2019 01:00:00 - 18.02.2019 01:00:00 (CET)Volkel, Pays-Bas (6375): Direction du vent: 12.02.2019 01:00:00 - 18.02.2019 01:00:00 (CET)Volkel, Pays-Bas (6375): reduced air pressure: 12.02.2019 01:00:00 - 18.02.2019 01:00:00 (CET)Volkel, Pays-Bas (6375): visibility: 12.02.2019 01:00:00 - 18.02.2019 01:00:00 (CET)Volkel, Pays-Bas (6375): Quantités de précipitations: 12.02.2019 01:00:00 - 18.02.2019 01:00:00 (CET)
Date & Time tt [°C] td [°C] tt 5cm [°C] ff [km/h] ff [knt] fx [km/h] fx [knt] dd ppp [hPa] vv [km] rr [mm]
18.02.2019 01:00:00 5,7 -1,2 -0,9 5 3 11 6 S 1019,4 10 0,0
18.02.2019 00:00:00 6,7 -1,1 1,9 8 4 14 8 S 1019,3 10 0,0
17.02.2019 23:00:00 8,2 -1,0 5,2 11 6 18 10 S 1019,5 10 0,0
17.02.2019 22:00:00 7,2 -1,2 1,6 9 5 18 10 S 1019,6 10 0,0
17.02.2019 21:00:00 9,3 -0,1 5,5 15 8 22 12 SSW 1019,3 10 0,0
17.02.2019 20:00:00 6,3 1,7 0,4 8 4 11 6 S 1019,2 10 0,0
17.02.2019 19:00:00 7,4 2,2 2,3 5 3 11 6 SSE 1019,0 10 0,0
17.02.2019 18:00:00 12,5 3,4 6,6 5 3 14 8 SSE 1018,6 10 0,0
17.02.2019 17:00:00 14,3 4,3 12,7 9 5 18 10 SSE 1018,5 10 0,0
17.02.2019 16:00:00 15,7 3,8 15,4 13 7 18 10 SSE 1018,8 10 0,0
17.02.2019 15:00:00 15,7 3,6 16,4 11 6 22 12 S 1019,1 10 0,0
17.02.2019 14:00:00 15,0 3,1 16,2 13 7 22 12 SSE 1019,7 10 0,0
17.02.2019 13:00:00 14,1 3,9 15,3 13 7 25 14 S 1020,2 10 0,0
17.02.2019 12:00:00 12,6 3,1 13,2 15 8 25 14 SSE 1021,0 10 0,0
17.02.2019 11:00:00 9,8 3,5 10,6 8 4 14 8 SE 1021,4 10 0,0
17.02.2019 10:00:00 6,4 2,4 5,8 8 4 11 6 SE 1021,6 10 0,0
17.02.2019 09:00:00 2,4 0,4 -1,4 5 3 7 4 SE 1022,0 10 0,0
17.02.2019 08:00:00 0,9 -0,3 -4,1 5 3 11 6 SSE 1022,1 10 0,0
17.02.2019 07:00:00 -0,1 -0,8 -3,9 2 1 4 2 E 1022,2 9 0,0
17.02.2019 06:00:00 0,6 0,0 -3,5 2 1 4 2 E 1022,6 10 0,0
17.02.2019 05:00:00 0,0 -0,5 -4,1 5 3 7 4 ESE 1022,8 5 0,0
17.02.2019 04:00:00 0,9 0,3 -2,8 4 2 4 2 - 1023,3 7 0,0
17.02.2019 03:00:00 0,5 -0,1 -3,7 4 2 7 4 SSW 1023,9 9 0,0
17.02.2019 02:00:00 1,0 0,1 -3,7 4 2 7 4 - 1024,0 9 0,0
17.02.2019 01:00:00 1,1 0,1 -3,3 2 1 7 4 SSE 1024,3 9 0,0
17.02.2019 00:00:00 2,5 1,5 -2,3 4 2 7 4 - 1024,7 10 0,0
16.02.2019 23:00:00 1,9 1,5 -2,7 0 0 4 2 N 1024,8 8 0,0
16.02.2019 22:00:00 2,4 1,4 -1,3 2 1 4 2 - 1024,9 8 0,0
16.02.2019 21:00:00 3,1 2,2 -1,3 0 0 4 2 N 1024,8 10 0,0
16.02.2019 20:00:00 5,0 3,0 -1,0 2 1 4 2 SE 1025,0 10 0,0
16.02.2019 19:00:00 6,8 3,5 0,8 2 1 4 2 - 1025,1 10 0,0
16.02.2019 18:00:00 9,5 4,0 3,8 5 3 11 6 SSW 1024,8 10 0,0
16.02.2019 17:00:00 11,8 4,5 10,4 11 6 14 8 SSW 1024,9 10 0,0
16.02.2019 16:00:00 13,7 4,1 13,4 13 7 18 10 SW 1025,3 10 0,0
16.02.2019 15:00:00 14,2 4,5 14,6 16 9 22 12 SW 1025,3 10 0,0
16.02.2019 14:00:00 13,6 3,6 14,9 16 9 25 14 SW 1025,4 10 0,0
16.02.2019 13:00:00 13,1 3,7 14,4 13 7 22 12 SW 1025,8 10 0,0
16.02.2019 12:00:00 11,7 3,9 13,1 11 6 22 12 SW 1026,1 10 0,0
16.02.2019 11:00:00 9,1 3,0 10,0 13 7 18 10 SSW 1025,9 10 0,0
16.02.2019 10:00:00 6,6 1,9 6,4 11 6 14 8 SSW 1026,2 10 0,0
16.02.2019 09:00:00 3,5 0,3 1,5 9 5 14 8 SSW 1026,0 10 0,0
16.02.2019 08:00:00 2,3 -1,0 -2,0 8 4 11 6 SSW 1025,6 10 0,0
16.02.2019 07:00:00 2,9 -0,3 -1,9 9 5 11 6 SW 1025,4 10 0,0
16.02.2019 06:00:00 2,4 -0,8 -1,7 8 4 14 8 SSW 1025,5 10 0,0
16.02.2019 05:00:00 3,6 -0,2 -2,0 8 4 11 6 S 1025,3 10 0,0
16.02.2019 04:00:00 3,7 0,2 -1,2 4 2 11 6 S 1025,6 10 0,0
16.02.2019 03:00:00 2,8 0,6 -3,3 5 3 7 4 SSE 1026,1 10 0,0
16.02.2019 02:00:00 4,9 0,6 -1,1 5 3 14 8 SSW 1026,4 10 0,0
16.02.2019 01:00:00 4,1 0,5 -1,2 5 3 14 8 S 1026,6 10 0,0
16.02.2019 00:00:00 6,3 1,7 1,5 9 5 14 8 SSE 1026,5 10 0,0
15.02.2019 23:00:00 6,5 1,9 -0,5 5 3 11 6 SSE 1026,6 10 0,0
15.02.2019 22:00:00 4,1 2,4 -1,6 5 3 7 4 SE 1026,8 10 0,0
15.02.2019 21:00:00 3,2 2,2 -2,0 5 3 7 4 ESE 1027,2 10 0,0
15.02.2019 20:00:00 4,6 3,4 -0,2 4 2 7 4 - 1027,6 10 0,0
15.02.2019 19:00:00 7,6 4,3 3,4 5 3 7 4 E 1027,9 10 0,0
15.02.2019 18:00:00 9,7 4,4 6,3 5 3 11 6 ESE 1028,2 10 0,0
15.02.2019 17:00:00 13,7 3,9 12,2 9 5 14 8 ESE 1028,2 10 0,0
15.02.2019 16:00:00 15,2 3,5 15,1 9 5 14 8 ESE 1028,8 10 0,0
15.02.2019 15:00:00 15,1 2,1 16,5 11 6 18 10 SSE 1029,5 10 0,0
15.02.2019 14:00:00 14,3 1,7 16,0 11 6 14 8 SE 1030,4 10 0,0
15.02.2019 13:00:00 12,6 1,3 14,3 11 6 14 8 SE 1031,1 10 0,0
15.02.2019 12:00:00 10,6 1,8 11,9 9 5 14 8 SE 1031,8 10 0,0
15.02.2019 11:00:00 8,2 0,6 9,2 9 5 14 8 SE 1032,0 10 0,0
15.02.2019 10:00:00 5,6 -0,4 5,7 8 4 14 8 ESE 1032,2 10 0,0
15.02.2019 09:00:00 1,7 -1,4 -0,1 5 3 7 4 E 1032,5 10 0,0
15.02.2019 08:00:00 -0,4 -2,4 -3,5 4 2 7 4 E 1032,3 10 0,0
15.02.2019 07:00:00 0,9 -1,8 -3,0 4 2 7 4 E 1032,3 10 0,0
15.02.2019 06:00:00 0,8 -1,7 -3,3 5 3 7 4 E 1032,4 10 0,0
15.02.2019 05:00:00 -1,1 -2,9 -4,7 5 3 7 4 ENE 1032,4 10 0,0
15.02.2019 04:00:00 1,2 -1,8 -2,6 5 3 7 4 E 1032,8 10 0,0
15.02.2019 03:00:00 0,0 -2,0 -4,4 5 3 7 4 ENE 1033,3 10 0,0
15.02.2019 02:00:00 0,2 -2,1 -4,4 2 1 7 4 E 1033,4 10 0,0
15.02.2019 01:00:00 0,2 -1,8 -4,6 2 1 7 4 NE 1033,4 10 0,0
15.02.2019 00:00:00 0,9 -1,0 -3,3 5 3 11 6 ENE 1033,3 10 0,0
14.02.2019 23:00:00 2,8 0,3 -2,3 5 3 7 4 E 1033,4 10 0,0
14.02.2019 22:00:00 2,2 -0,1 -2,6 4 2 11 6 ENE 1033,5 10 0,0
14.02.2019 21:00:00 2,9 -0,2 -1,3 5 3 11 6 E 1033,7 10 0,0
14.02.2019 20:00:00 4,6 0,5 -1,5 8 4 14 8 E 1034,0 10 0,0
14.02.2019 19:00:00 5,8 0,3 1,7 8 4 11 6 ESE 1034,0 10 0,0
14.02.2019 18:00:00 7,6 0,9 3,2 8 4 11 6 ESE 1033,9 10 0,0
14.02.2019 17:00:00 11,8 -0,2 10,0 4 2 7 4 ESE 1034,0 10 0,0
14.02.2019 16:00:00 12,7 -1,0 13,5 4 2 14 8 SSE 1034,3 10 0,0
14.02.2019 15:00:00 12,8 -1,3 14,2 8 4 14 8 SSE 1034,8 10 0,0
14.02.2019 14:00:00 12,2 0,7 14,0 5 3 11 6 SW 1035,5 10 0,0
14.02.2019 13:00:00 10,2 1,1 10,2 8 4 14 8 S 1035,8 10 0,0
14.02.2019 12:00:00 8,9 1,2 10,0 9 5 14 8 SSW 1036,3 10 0,0
14.02.2019 11:00:00 7,4 0,3 7,8 9 5 14 8 SSW 1036,3 10 0,0
14.02.2019 10:00:00 4,6 -0,2 4,4 5 3 11 6 SW 1036,2 10 0,0
14.02.2019 09:00:00 1,2 -0,8 -0,9 5 3 11 6 SSW 1036,4 10 0,0
14.02.2019 08:00:00 0,3 -1,0 -4,9 5 3 7 4 SSW 1036,1 10 0,0
14.02.2019 07:00:00 -1,5 -1,9 -4,9 2 1 7 4 - 1036,0 5 0,0
14.02.2019 06:00:00 0,5 0,0 -4,1 4 2 7 4 SSE 1035,6 5 0,0
14.02.2019 05:00:00 -0,2 -0,3 -3,8 5 3 7 4 S 1035,2 3,2 0,0
14.02.2019 04:00:00 1,2 0,9 -1,7 5 3 11 6 S 1035,1 10 0,0
14.02.2019 03:00:00 0,9 0,1 -2,5 5 3 7 4 S 1035,1 10 0,0
14.02.2019 02:00:00 1,8 0,4 -0,8 5 3 14 8 SW 1035,2 10 0,0
14.02.2019 01:00:00 1,6 0,2 -0,7 11 6 14 8 SSW 1035,2 10 0,0
14.02.2019 00:00:00 1,8 0,4 0,9 11 6 18 10 SSW 1035,2 10 0,0
13.02.2019 23:00:00 2,5 0,7 -0,1 9 5 14 8 SSW 1035,4 10 0,0
13.02.2019 22:00:00 3,5 1,1 1,1 8 4 11 6 S 1035,4 10 0,0
13.02.2019 21:00:00 3,9 1,3 0,9 5 3 11 6 S 1035,5 10 0,0
13.02.2019 20:00:00 4,8 1,8 2,7 11 6 14 8 S 1035,7 10 0,0
13.02.2019 19:00:00 4,7 2,0 2,1 9 5 14 8 S 1035,8 10 0,0
13.02.2019 18:00:00 5,0 2,2 3,2 9 5 18 10 S 1035,7 10 0,0
13.02.2019 17:00:00 7,2 3,2 6,2 11 6 14 8 S 1035,4 10 0,0
13.02.2019 16:00:00 8,4 3,6 8,4 13 7 18 10 SSW 1035,5 10 0,0
13.02.2019 15:00:00 8,5 3,8 9,2 9 5 18 10 SSW 1035,3 10 0,0
13.02.2019 14:00:00 6,7 2,9 7,0 8 4 14 8 SSW 1035,7 10 0,0
13.02.2019 13:00:00 6,2 2,9 6,2 13 7 18 10 SW 1036,3 10 0,0
13.02.2019 12:00:00 5,9 2,8 6,1 15 8 18 10 SW 1036,4 10 0,0
13.02.2019 11:00:00 3,7 1,5 3,8 13 7 22 12 SSW 1036,2 10 0,0
13.02.2019 10:00:00 2,7 1,0 2,7 16 9 22 12 SSW 1036,3 9 0,0
13.02.2019 09:00:00 2,9 1,1 2,9 13 7 18 10 SSW 1036,0 9 0,0
13.02.2019 08:00:00 3,2 1,5 2,8 13 7 22 12 SSW 1035,5 9 0,0
13.02.2019 07:00:00 2,7 1,4 2,1 9 5 18 10 SW 1035,3 9 0,0
13.02.2019 06:00:00 1,6 0,7 0,3 13 7 18 10 SSW 1034,9 9 0,0
13.02.2019 05:00:00 1,2 0,4 -0,8 11 6 18 10 SSW 1035,1 6 0,0
13.02.2019 04:00:00 1,8 0,7 0,9 15 8 25 14 SW 1035,2 9 0,0
13.02.2019 03:00:00 2,4 1,2 1,5 16 9 22 12 SW 1035,4 9 0,0
13.02.2019 02:00:00 2,9 1,7 2,0 18 10 25 14 SW 1035,3 9 0,0
13.02.2019 01:00:00 2,6 1,7 1,6 15 8 22 12 SW 1035,4 9 0,0
13.02.2019 00:00:00 1,9 0,9 0,9 13 7 22 12 SW 1035,2 10 0,0
12.02.2019 23:00:00 3,6 1,9 2,5 15 8 25 14 SW 1035,1 10 0,0
12.02.2019 22:00:00 5,1 2,7 4,3 21 11 29 16 SW 1034,5 10 0,0
12.02.2019 21:00:00 5,0 2,9 3,4 15 8 22 12 SW 1034,5 10 0,0
12.02.2019 20:00:00 4,4 2,2 1,6 11 6 18 10 SSW 1034,4 10 0,0
12.02.2019 19:00:00 4,6 2,2 0,9 11 6 18 10 SSW 1034,2 10 0,0
12.02.2019 18:00:00 4,0 1,8 2,8 13 7 18 10 SW 1034,2 10 0,0
12.02.2019 17:00:00 6,4 3,3 5,8 15 8 22 12 SW 1033,9 10 0,0
12.02.2019 16:00:00 7,9 3,3 7,6 21 11 29 16 SW 1033,9 10 0,0
12.02.2019 15:00:00 8,1 3,9 8,4 18 10 25 14 SW 1033,8 10 0,0
12.02.2019 14:00:00 7,1 3,7 7,6 18 10 25 14 SW 1033,8 10 0,0
12.02.2019 13:00:00 6,4 3,8 6,7 21 11 25 14 WSW 1034,3 10 0,0
12.02.2019 12:00:00 4,4 2,8 4,6 18 10 25 14 SW 1034,6 10 0,0
12.02.2019 11:00:00 3,6 2,7 3,4 15 8 18 10 SW 1034,3 10 0,0
12.02.2019 10:00:00 2,3 1,7 1,7 13 7 14 8 SW 1033,7 9 0,0
12.02.2019 09:00:00 1,0 0,7 0,4 11 6 14 8 SW 1033,6 10 0,0
12.02.2019 08:00:00 0,1 -0,1 -0,4 11 6 14 8 SW 1032,9 9 0,0
12.02.2019 07:00:00 0,0 -0,2 -0,5 11 6 14 8 WSW 1032,6 9 0,0
12.02.2019 06:00:00 -0,6 -0,7 -2,2 13 7 14 8 WSW 1032,5 8 0,0
12.02.2019 05:00:00 -0,8 -0,8 -4,1 9 5 11 6 WSW 1032,5 5 0,0
12.02.2019 04:00:00 -1,7 -1,7 -3,0 11 6 11 6 WSW 1032,3 6 0,0
12.02.2019 03:00:00 -0,6 -0,8 -2,8 9 5 11 6 SW 1032,2 9 0,0
12.02.2019 02:00:00 -1,3 -2,1 -2,5 8 4 14 8 WSW 1032,2 10 0,0
12.02.2019 01:00:00 -1,1 -1,6 -2,8 8 4 11 6 WSW 1031,6 10 0,0

tt = Température de l'air
td = dewpoint
tt 5cm = Température de l'air 5cm
ff = Vitesse du vent
fx = gusts
dd = Direction du vent
ppp = reduced air pressure
vv = visibility
rr = Quantités de précipitations

stations d'obs. à proximité